Time,TemperatureF,DewpointF,PressureIn,WindDirection,WindDirectionDegrees,WindSpeedMPH,WindSpeedGustMPH,Humidity,HourlyPrecipIn,Conditions,Clouds,dailyrainin,SoftwareType,DateUTC
2013-01-15 00:02:00,7.2,4.4,30.24,West,265,0.0,0.0,88,0.00,,---,0.00,VWS V14.01,2013-01-15 06:02:00,
2013-01-15 00:07:00,7.1,4.3,30.24,West,264,0.0,0.0,88,0.00,,---,0.00,VWS V14.01,2013-01-15 06:07:00,
2013-01-15 00:12:00,7.0,4.2,30.24,West,265,0.0,0.0,88,0.00,,---,0.00,VWS V14.01,2013-01-15 06:12:00,
2013-01-15 00:17:00,7.0,4.2,30.24,West,264,0.0,0.0,88,0.00,,---,0.00,VWS V14.01,2013-01-15 06:17:00,
2013-01-15 00:22:00,6.9,4.3,30.24,SSW,200,1.0,1.0,89,0.00,,---,0.00,VWS V14.01,2013-01-15 06:22:00,
2013-01-15 00:27:00,6.9,4.3,30.24,SSW,194,0.0,1.0,89,0.00,,---,0.00,VWS V14.01,2013-01-15 06:27:00,
2013-01-15 00:32:00,6.7,4.2,30.24,SSE,151,1.0,2.0,89,0.00,,---,0.00,VWS V14.01,2013-01-15 06:32:00,
2013-01-15 00:37:00,6.6,4.1,30.24,SSE,150,0.0,2.0,89,0.00,,---,0.00,VWS V14.01,2013-01-15 06:37:00,
2013-01-15 00:42:00,6.5,4.0,30.24,SSE,150,1.0,2.0,89,0.00,,---,0.00,VWS V14.01,2013-01-15 06:42:00,
2013-01-15 00:47:00,6.4,3.9,30.24,SSE,150,0.0,2.0,89,0.00,,---,0.00,VWS V14.01,2013-01-15 06:47:00,
2013-01-15 00:52:00,6.4,3.9,30.23,SSE,150,0.0,2.0,89,0.00,,---,0.00,VWS V14.01,2013-01-15 06:52:00,
2013-01-15 00:57:00,6.5,4.0,30.24,SSE,150,0.0,2.0,89,0.00,,---,0.00,VWS V14.01,2013-01-15 06:57:00,
2013-01-15 01:02:00,6.6,4.1,30.23,SSE,150,0.0,2.0,89,0.00,,---,0.00,VWS V14.01,2013-01-15 07:02:00,
2013-01-15 01:07:00,6.7,4.4,30.23,SE,136,1.0,2.0,90,0.00,,---,0.00,VWS V14.01,2013-01-15 07:07:00,
2013-01-15 01:12:00,6.9,4.6,30.23,SE,134,0.0,2.0,90,0.00,,---,0.00,VWS V14.01,2013-01-15 07:12:00,
2013-01-15 01:17:00,7.1,4.8,30.23,SE,134,0.0,2.0,90,0.00,,---,0.00,VWS V14.01,2013-01-15 07:17:00,
2013-01-15 01:22:00,7.1,4.6,30.24,SE,135,1.0,2.0,89,0.00,,---,0.00,VWS V14.01,2013-01-15 07:22:00,
2013-01-15 01:27:00,7.0,4.4,30.23,SE,129,1.0,3.0,89,0.00,,---,0.00,VWS V14.01,2013-01-15 07:27:00,
2013-01-15 01:32:00,6.9,4.3,30.23,SE,140,0.0,2.0,89,0.00,,---,0.00,VWS V14.01,2013-01-15 07:32:00,
2013-01-15 01:37:00,6.8,4.2,30.24,SE,140,1.0,2.0,89,0.00,,---,0.00,VWS V14.01,2013-01-15 07:37:00,
2013-01-15 01:42:00,6.7,4.2,30.23,SE,140,1.0,2.0,89,0.00,,---,0.00,VWS V14.01,2013-01-15 07:42:00,
2013-01-15 01:47:00,6.8,4.2,30.23,SE,139,1.0,2.0,89,0.00,,---,0.00,VWS V14.01,2013-01-15 07:47:00,
2013-01-15 01:52:00,6.7,4.2,30.23,East,89,1.0,3.0,89,0.00,,---,0.00,VWS V14.01,2013-01-15 07:52:00,
2013-01-15 01:57:00,6.6,4.1,30.23,East,89,1.0,3.0,89,0.00,,---,0.00,VWS V14.01,2013-01-15 07:57:00,
2013-01-15 02:02:00,6.6,4.1,30.23,East,90,1.0,3.0,89,0.00,,---,0.00,VWS V14.01,2013-01-15 08:02:00,
2013-01-15 02:07:00,6.5,4.0,30.23,East,101,2.0,3.0,89,0.00,,---,0.00,VWS V14.01,2013-01-15 08:07:00,
2013-01-15 02:12:00,6.4,3.9,30.23,East,101,2.0,3.0,89,0.00,,---,0.00,VWS V14.01,2013-01-15 08:12:00,
2013-01-15 02:17:00,6.5,4.0,30.23,ESE,102,2.0,3.0,89,0.00,,---,0.00,VWS V14.01,2013-01-15 08:17:00,
2013-01-15 02:22:00,6.6,4.1,30.23,East,96,2.0,4.0,89,0.00,,---,0.00,VWS V14.01,2013-01-15 08:22:00,
2013-01-15 02:27:00,6.9,4.3,30.23,ESE,103,1.0,4.0,89,0.00,,---,0.00,VWS V14.01,2013-01-15 08:27:00,
2013-01-15 02:32:00,7.1,4.6,30.23,East,98,2.0,3.0,89,0.00,,---,0.00,VWS V14.01,2013-01-15 08:32:00,
2013-01-15 02:37:00,7.4,4.8,30.22,East,94,3.0,4.0,89,0.00,,---,0.00,VWS V14.01,2013-01-15 08:37:00,
2013-01-15 02:42:00,7.7,5.1,30.23,East,88,2.0,4.0,89,0.00,,---,0.00,VWS V14.01,2013-01-15 08:42:00,
2013-01-15 02:47:00,7.8,5.0,30.22,ESE,110,3.0,4.0,88,0.00,,---,0.00,VWS V14.01,2013-01-15 08:47:00,
2013-01-15 02:52:00,7.9,5.1,30.22,East,84,2.0,4.0,88,0.00,,---,0.00,VWS V14.01,2013-01-15 08:52:00,
2013-01-15 02:57:00,7.9,5.1,30.22,East,87,2.0,4.0,88,0.00,,---,0.00,VWS V14.01,2013-01-15 08:57:00,
2013-01-15 03:02:00,7.8,5.0,30.22,East,89,3.0,4.0,88,0.00,,---,0.00,VWS V14.01,2013-01-15 09:02:00,
2013-01-15 03:07:00,8.0,5.2,30.22,East,83,3.0,4.0,88,0.00,,---,0.00,VWS V14.01,2013-01-15 09:07:00,
2013-01-15 03:12:00,8.1,5.5,30.21,East,100,4.0,4.0,89,0.00,,---,0.00,VWS V14.01,2013-01-15 09:12:00,
2013-01-15 03:17:00,8.2,5.6,30.21,East,88,2.0,5.0,89,0.00,,---,0.00,VWS V14.01,2013-01-15 09:17:00,
2013-01-15 03:22:00,8.1,5.3,30.21,East,93,2.0,5.0,88,0.00,,---,0.00,VWS V14.01,2013-01-15 09:22:00,
2013-01-15 03:27:00,8.0,5.2,30.21,East,98,3.0,5.0,88,0.00,,---,0.00,VWS V14.01,2013-01-15 09:27:00,
2013-01-15 03:32:00,7.9,5.1,30.21,East,88,2.0,4.0,88,0.00,,---,0.00,VWS V14.01,2013-01-15 09:32:00,
2013-01-15 03:37:00,7.7,4.9,30.20,East,98,3.0,5.0,88,0.00,,---,0.00,VWS V14.01,2013-01-15 09:37:00,
2013-01-15 03:42:00,7.6,5.0,30.20,ESE,108,2.0,5.0,89,0.00,,---,0.00,VWS V14.01,2013-01-15 09:42:00,
2013-01-15 03:47:00,7.6,5.0,30.20,SE,138,2.0,5.0,89,0.00,,---,0.00,VWS V14.01,2013-01-15 09:47:00,
2013-01-15 03:52:00,7.7,5.1,30.20,SE,126,2.0,5.0,89,0.00,,---,0.00,VWS V14.01,2013-01-15 09:52:00,
2013-01-15 03:57:00,7.6,5.0,30.20,ESE,122,2.0,5.0,89,0.00,,---,0.00,VWS V14.01,2013-01-15 09:57:00,
2013-01-15 04:02:00,7.7,5.1,30.19,SE,133,1.0,4.0,89,0.00,,---,0.00,VWS V14.01,2013-01-15 10:02:00,
2013-01-15 04:07:00,7.8,5.5,30.19,ESE,119,2.0,5.0,90,0.00,,---,0.00,VWS V14.01,2013-01-15 10:07:00,
2013-01-15 04:12:00,8.0,5.7,30.19,ESE,122,2.0,5.0,90,0.00,,---,0.00,VWS V14.01,2013-01-15 10:12:00,
2013-01-15 04:17:00,8.0,5.4,30.19,ESE,121,1.0,5.0,89,0.00,,---,0.00,VWS V14.01,2013-01-15 10:17:00,
2013-01-15 04:22:00,7.8,5.2,30.19,ESE,123,2.0,5.0,89,0.00,,---,0.00,VWS V14.01,2013-01-15 10:22:00,
2013-01-15 04:27:00,7.7,5.1,30.19,SE,125,2.0,5.0,89,0.00,,---,0.00,VWS V14.01,2013-01-15 10:27:00,
2013-01-15 04:32:00,7.7,5.4,30.18,SE,126,3.0,4.0,90,0.00,,---,0.00,VWS V14.01,2013-01-15 10:32:00,
2013-01-15 04:37:00,7.7,5.4,30.18,SE,144,2.0,4.0,90,0.00,,---,0.00,VWS V14.01,2013-01-15 10:37:00,
2013-01-15 04:42:00,7.5,4.9,30.18,SE,144,1.0,4.0,89,0.00,,---,0.00,VWS V14.01,2013-01-15 10:42:00,
2013-01-15 04:47:00,7.4,4.8,30.18,SE,142,2.0,4.0,89,0.00,,---,0.00,VWS V14.01,2013-01-15 10:47:00,
2013-01-15 04:52:00,7.3,4.8,30.18,SE,142,2.0,4.0,89,0.00,,---,0.00,VWS V14.01,2013-01-15 10:52:00,
2013-01-15 04:57:00,7.3,5.0,30.17,SE,142,3.0,4.0,90,0.00,,---,0.00,VWS V14.01,2013-01-15 10:57:00,
2013-01-15 05:02:00,7.3,5.0,30.17,SSE,147,0.0,4.0,90,0.00,,---,0.00,VWS V14.01,2013-01-15 11:02:00,
2013-01-15 05:07:00,7.4,5.1,30.17,SE,144,0.0,4.0,90,0.00,,---,0.00,VWS V14.01,2013-01-15 11:07:00,
2013-01-15 05:12:00,7.4,5.1,30.17,SE,143,3.0,4.0,90,0.00,,---,0.00,VWS V14.01,2013-01-15 11:12:00,
2013-01-15 05:17:00,7.3,5.0,30.17,SE,143,0.0,4.0,90,0.00,,---,0.00,VWS V14.01,2013-01-15 11:17:00,
2013-01-15 05:22:00,7.3,5.0,30.17,SE,144,0.0,6.0,90,0.00,,---,0.00,VWS V14.01,2013-01-15 11:22:00,
2013-01-15 05:27:00,7.1,4.8,30.17,SE,143,1.0,6.0,90,0.00,,---,0.00,VWS V14.01,2013-01-15 11:27:00,
2013-01-15 05:32:00,7.1,4.8,30.17,SE,136,1.0,5.0,90,0.00,,---,0.00,VWS V14.01,2013-01-15 11:32:00,
2013-01-15 05:37:00,7.1,4.8,30.17,SE,145,2.0,5.0,90,0.00,,---,0.00,VWS V14.01,2013-01-15 11:37:00,
2013-01-15 05:42:00,7.2,4.9,30.17,SSE,147,2.0,5.0,90,0.00,,---,0.00,VWS V14.01,2013-01-15 11:42:00,
2013-01-15 05:47:00,7.2,4.9,30.17,SSE,148,3.0,5.0,90,0.00,,---,0.00,VWS V14.01,2013-01-15 11:47:00,
2013-01-15 05:52:00,7.1,4.8,30.17,SSE,148,3.0,5.0,90,0.00,,---,0.00,VWS V14.01,2013-01-15 11:52:00,
2013-01-15 05:57:00,7.0,4.7,30.17,SE,144,2.0,5.0,90,0.00,,---,0.00,VWS V14.01,2013-01-15 11:57:00,
2013-01-15 06:02:00,6.9,4.6,30.17,SSE,152,1.0,1.0,90,0.00,,---,0.00,VWS V14.01,2013-01-15 12:02:00,
2013-01-15 06:07:00,6.8,4.5,30.17,SE,146,3.0,4.0,90,0.00,,---,0.00,VWS V14.01,2013-01-15 12:07:00,
2013-01-15 06:12:00,6.8,4.5,30.17,SE,140,2.0,4.0,90,0.00,,---,0.00,VWS V14.01,2013-01-15 12:12:00,
2013-01-15 06:17:00,6.8,4.5,30.17,SE,136,3.0,4.0,90,0.00,,---,0.00,VWS V14.01,2013-01-15 12:17:00,
2013-01-15 06:22:00,6.7,4.4,30.17,SE,140,4.0,4.0,90,0.00,,---,0.00,VWS V14.01,2013-01-15 12:22:00,
2013-01-15 06:27:00,6.7,4.4,30.16,SE,138,3.0,4.0,90,0.00,,---,0.00,VWS V14.01,2013-01-15 12:27:00,
2013-01-15 06:32:00,6.7,4.4,30.16,SSE,148,1.0,4.0,90,0.00,,---,0.00,VWS V14.01,2013-01-15 12:32:00,
2013-01-15 06:37:00,6.7,4.4,30.17,SSE,147,3.0,4.0,90,0.00,,---,0.00,VWS V14.01,2013-01-15 12:37:00,
2013-01-15 06:42:00,6.8,4.7,30.17,SSE,155,3.0,4.0,91,0.00,,---,0.00,VWS V14.01,2013-01-15 12:42:00,
2013-01-15 06:47:00,6.8,4.5,30.17,SSE,153,4.0,5.0,90,0.00,,---,0.00,VWS V14.01,2013-01-15 12:47:00,
2013-01-15 06:52:00,6.8,4.7,30.17,SSE,150,4.0,5.0,91,0.00,,---,0.00,VWS V14.01,2013-01-15 12:52:00,
2013-01-15 06:57:00,6.9,4.8,30.16,South,173,3.0,5.0,91,0.00,,---,0.00,VWS V14.01,2013-01-15 12:57:00,
2013-01-15 07:02:00,6.9,4.8,30.16,SE,142,3.0,4.0,91,0.00,,---,0.00,VWS V14.01,2013-01-15 13:02:00,
2013-01-15 07:07:00,7.0,4.9,30.17,SE,146,3.0,4.0,91,0.00,,---,0.00,VWS V14.01,2013-01-15 13:07:00,
2013-01-15 07:12:00,7.0,4.9,30.17,SSE,162,3.0,4.0,91,0.00,,---,0.00,VWS V14.01,2013-01-15 13:12:00,
2013-01-15 07:17:00,7.1,5.0,30.17,SSE,150,3.0,4.0,91,0.00,,---,0.00,VWS V14.01,2013-01-15 13:17:00,
2013-01-15 07:22:00,7.1,5.0,30.17,SSE,147,2.0,4.0,91,0.00,,---,0.00,VWS V14.01,2013-01-15 13:22:00,
2013-01-15 07:27:00,7.0,4.9,30.17,SE,142,3.0,4.0,91,0.00,,---,0.00,VWS V14.01,2013-01-15 13:27:00,
2013-01-15 07:32:00,6.9,4.8,30.16,SSE,148,1.0,4.0,91,0.00,,---,0.00,VWS V14.01,2013-01-15 13:32:00,
2013-01-15 07:37:00,7.0,4.9,30.17,SSE,148,2.0,4.0,91,0.00,,---,0.00,VWS V14.01,2013-01-15 13:37:00,
2013-01-15 07:42:00,7.1,5.0,30.16,SSE,148,3.0,4.0,91,0.00,,---,0.00,VWS V14.01,2013-01-15 13:42:00,
2013-01-15 07:47:00,7.2,5.1,30.17,SSE,148,0.0,4.0,91,0.00,,---,0.00,VWS V14.01,2013-01-15 13:47:00,
2013-01-15 07:52:00,7.3,5.2,30.17,SE,146,3.0,4.0,91,0.00,,---,0.00,VWS V14.01,2013-01-15 13:52:00,
2013-01-15 07:57:00,7.4,5.3,30.16,SSE,151,0.0,4.0,91,0.00,,---,0.00,VWS V14.01,2013-01-15 13:57:00,
2013-01-15 08:02:00,7.5,5.4,30.16,SSE,153,2.0,3.0,91,0.00,,---,0.00,VWS V14.01,2013-01-15 14:02:00,
2013-01-15 08:07:00,7.6,5.5,30.16,SSE,155,0.0,4.0,91,0.00,,---,0.00,VWS V14.01,2013-01-15 14:07:00,
2013-01-15 08:12:00,7.7,5.6,30.16,SSE,152,2.0,4.0,91,0.00,,---,0.00,VWS V14.01,2013-01-15 14:12:00,
2013-01-15 08:17:00,7.7,5.6,30.16,SSE,151,2.0,4.0,91,0.00,,---,0.00,VWS V14.01,2013-01-15 14:17:00,
2013-01-15 08:22:00,7.9,5.8,30.16,SSE,159,0.0,4.0,91,0.00,,---,0.00,VWS V14.01,2013-01-15 14:22:00,
2013-01-15 08:27:00,8.0,5.9,30.16,SSE,166,1.0,4.0,91,0.00,,---,0.00,VWS V14.01,2013-01-15 14:27:00,
2013-01-15 08:32:00,8.2,6.1,30.16,SSE,155,1.0,2.0,91,0.00,,---,0.00,VWS V14.01,2013-01-15 14:32:00,
2013-01-15 08:37:00,8.5,6.4,30.16,SSE,162,1.0,4.0,91,0.00,,---,0.00,VWS V14.01,2013-01-15 14:37:00,
2013-01-15 08:42:00,8.8,6.7,30.16,SSE,164,2.0,5.0,91,0.00,,---,0.00,VWS V14.01,2013-01-15 14:42:00,
2013-01-15 08:47:00,9.1,7.0,30.16,South,175,2.0,5.0,91,0.00,,---,0.00,VWS V14.01,2013-01-15 14:47:00,
2013-01-15 08:52:00,9.3,7.2,30.17,SSE,153,2.0,5.0,91,0.00,,---,0.00,VWS V14.01,2013-01-15 14:52:00,
2013-01-15 08:57:00,9.5,7.4,30.17,SSE,168,0.0,5.0,91,0.00,,---,0.00,VWS V14.01,2013-01-15 14:57:00,
2013-01-15 09:02:00,9.8,7.7,30.16,SSE,161,1.0,3.0,91,0.00,,---,0.00,VWS V14.01,2013-01-15 15:02:00,
2013-01-15 09:07:00,9.9,7.8,30.16,SSE,152,0.0,4.0,91,0.00,,---,0.00,VWS V14.01,2013-01-15 15:07:00,
2013-01-15 09:12:00,10.1,7.8,30.16,South,175,0.0,5.0,90,0.00,,---,0.00,VWS V14.01,2013-01-15 15:12:00,
2013-01-15 09:17:00,10.3,8.2,30.16,South,176,1.0,7.0,91,0.00,,---,0.00,VWS V14.01,2013-01-15 15:17:00,
2013-01-15 09:22:00,10.6,8.5,30.16,SSE,153,0.0,7.0,91,0.00,,---,0.00,VWS V14.01,2013-01-15 15:22:00,
2013-01-15 09:27:00,11.0,8.9,30.16,South,178,7.0,7.0,91,0.00,,---,0.00,VWS V14.01,2013-01-15 15:27:00,
2013-01-15 09:32:00,11.4,9.3,30.16,South,177,1.0,1.0,91,0.00,,---,0.00,VWS V14.01,2013-01-15 15:32:00,
2013-01-15 09:37:00,11.7,9.6,30.16,SSE,151,1.0,5.0,91,0.00,,---,0.00,VWS V14.01,2013-01-15 15:37:00,
2013-01-15 09:42:00,12.1,10.0,30.15,South,172,0.0,5.0,91,0.00,,---,0.00,VWS V14.01,2013-01-15 15:42:00,
2013-01-15 09:47:00,12.5,10.1,30.15,South,189,2.0,7.0,90,0.00,,---,0.00,VWS V14.01,2013-01-15 15:47:00,
2013-01-15 09:52:00,12.9,10.5,30.15,SSE,150,1.0,7.0,90,0.00,,---,0.00,VWS V14.01,2013-01-15 15:52:00,
2013-01-15 09:57:00,13.4,11.0,30.15,SSE,161,5.0,9.0,90,0.00,,---,0.00,VWS V14.01,2013-01-15 15:57:00,
2013-01-15 10:02:00,14.0,11.6,30.15,South,169,2.0,5.0,90,0.00,,---,0.00,VWS V14.01,2013-01-15 16:02:00,
2013-01-15 10:07:00,14.5,12.1,30.15,SSW,207,0.0,5.0,90,0.00,,---,0.00,VWS V14.01,2013-01-15 16:07:00,
2013-01-15 10:12:00,15.1,12.4,30.15,SSE,147,0.0,6.0,89,0.00,,---,0.00,VWS V14.01,2013-01-15 16:12:00,
2013-01-15 10:17:00,15.6,12.7,30.15,SSE,166,0.0,6.0,88,0.00,,---,0.00,VWS V14.01,2013-01-15 16:17:00,
2013-01-15 10:22:00,16.2,13.0,30.15,SSW,192,0.0,6.0,87,0.00,,---,0.00,VWS V14.01,2013-01-15 16:22:00,
2013-01-15 10:27:00,16.7,13.2,30.15,SSE,163,0.0,6.0,86,0.00,,---,0.00,VWS V14.01,2013-01-15 16:27:00,
2013-01-15 10:32:00,17.1,13.6,30.15,South,178,2.0,4.0,86,0.00,,---,0.00,VWS V14.01,2013-01-15 16:32:00,
2013-01-15 10:37:00,17.4,13.7,30.15,SSE,147,0.0,7.0,85,0.00,,---,0.00,VWS V14.01,2013-01-15 16:37:00,
2013-01-15 10:42:00,17.7,14.2,30.14,South,170,0.0,7.0,86,0.00,,---,0.00,VWS V14.01,2013-01-15 16:42:00,
2013-01-15 10:47:00,17.9,14.2,30.14,SSW,197,3.0,7.0,85,0.00,,---,0.00,VWS V14.01,2013-01-15 16:47:00,
2013-01-15 10:52:00,18.2,14.5,30.14,SSE,148,0.0,7.0,85,0.00,,---,0.00,VWS V14.01,2013-01-15 16:52:00,
2013-01-15 10:57:00,18.6,14.9,30.14,ESE,122,0.0,7.0,85,0.00,,---,0.00,VWS V14.01,2013-01-15 16:57:00,
2013-01-15 11:02:00,19.1,15.1,30.13,South,179,3.0,5.0,84,0.00,,---,0.00,VWS V14.01,2013-01-15 17:02:00,
2013-01-15 11:07:00,19.7,15.7,30.13,SSW,193,4.0,6.0,84,0.00,,---,0.00,VWS V14.01,2013-01-15 17:07:00,
2013-01-15 11:12:00,20.1,15.8,30.13,SW,231,3.0,6.0,83,0.00,,---,0.00,VWS V14.01,2013-01-15 17:12:00,
2013-01-15 11:17:00,21.1,15.9,30.12,SSW,199,5.0,7.0,80,0.00,,---,0.00,VWS V14.01,2013-01-15 17:17:00,
2013-01-15 11:22:00,21.8,15.4,30.12,SW,222,8.0,12.0,76,0.00,,---,0.00,VWS V14.01,2013-01-15 17:22:00,
2013-01-15 11:27:00,22.6,16.2,30.12,South,171,1.0,13.0,76,0.00,,---,0.00,VWS V14.01,2013-01-15 17:27:00,
2013-01-15 11:33:00,23.1,15.8,30.11,SSW,208,14.0,14.0,73,0.00,,---,0.00,VWS V14.01,2013-01-15 17:33:00,
2013-01-15 11:38:00,23.0,15.3,30.11,SSW,213,9.0,15.0,72,0.00,,---,0.00,VWS V14.01,2013-01-15 17:38:00,
2013-01-15 11:43:00,23.4,16.0,30.11,SSW,200,6.0,15.0,73,0.00,,---,0.00,VWS V14.01,2013-01-15 17:43:00,
2013-01-15 11:48:00,23.6,15.9,30.10,SSW,211,9.0,15.0,72,0.00,,---,0.00,VWS V14.01,2013-01-15 17:48:00,
2013-01-15 11:53:00,23.4,15.4,30.10,SE,130,3.0,15.0,71,0.00,,---,0.00,VWS V14.01,2013-01-15 17:53:00,
2013-01-15 11:58:00,23.4,15.4,30.10,SE,142,3.0,15.0,71,0.00,,---,0.00,VWS V14.01,2013-01-15 17:58:00,
2013-01-15 17:30:00,25.7,16.3,29.99,SSE,158,3.0,12.0,67,0.00,,---,0.00,VWS V14.01,2013-01-15 23:30:00,
2013-01-15 18:03:00,25.7,16.3,29.99,SSE,158,3.0,12.0,67,0.00,,---,0.00,VWS V14.01,2013-01-16 00:03:00,
2013-01-15 18:08:00,24.9,15.9,29.99,South,176,5.0,11.0,68,0.00,,---,0.00,VWS V14.01,2013-01-16 00:08:00,
2013-01-15 18:13:00,24.8,16.1,29.99,SE,127,3.0,11.0,69,0.00,,---,0.00,VWS V14.01,2013-01-16 00:13:00,
2013-01-15 18:18:00,24.7,16.0,29.99,South,179,3.0,11.0,69,0.00,,---,0.00,VWS V14.01,2013-01-16 00:18:00,
2013-01-15 18:23:00,24.6,15.9,29.98,SSE,159,4.0,11.0,69,0.00,,---,0.00,VWS V14.01,2013-01-16 00:23:00,
2013-01-15 18:28:00,24.5,15.8,29.98,South,181,2.0,11.0,69,0.00,,---,0.00,VWS V14.01,2013-01-16 00:28:00,
2013-01-15 18:33:00,24.3,15.9,29.98,South,173,1.0,6.0,70,0.00,,---,0.00,VWS V14.01,2013-01-16 00:33:00,
2013-01-15 18:38:00,24.2,15.8,29.98,South,175,3.0,10.0,70,0.00,,---,0.00,VWS V14.01,2013-01-16 00:38:00,
2013-01-15 18:43:00,24.1,15.8,29.98,South,181,2.0,10.0,70,0.00,,---,0.00,VWS V14.01,2013-01-16 00:43:00,
2013-01-15 18:48:00,23.9,15.6,29.97,SE,136,5.0,10.0,70,0.00,,---,0.00,VWS V14.01,2013-01-16 00:48:00,
2013-01-15 18:53:00,23.8,15.5,29.97,SSE,158,3.0,12.0,70,0.00,,---,0.00,VWS V14.01,2013-01-16 00:53:00,
2013-01-15 18:58:00,23.8,15.5,29.97,SE,144,2.0,12.0,70,0.00,,---,0.00,VWS V14.01,2013-01-16 00:58:00,
2013-01-15 19:03:00,23.7,15.4,29.97,South,179,3.0,10.0,70,0.00,,---,0.00,VWS V14.01,2013-01-16 01:03:00,
2013-01-15 19:08:00,23.5,15.5,29.96,SE,146,6.0,10.0,71,0.00,,---,0.00,VWS V14.01,2013-01-16 01:08:00,
2013-01-15 19:13:00,23.4,15.4,29.96,South,187,1.0,10.0,71,0.00,,---,0.00,VWS V14.01,2013-01-16 01:13:00,
2013-01-15 19:18:00,23.3,15.3,29.96,SSE,161,4.0,11.0,71,0.00,,---,0.00,VWS V14.01,2013-01-16 01:18:00,
2013-01-15 19:23:00,23.3,15.6,29.96,SSE,153,2.0,11.0,72,0.00,,---,0.00,VWS V14.01,2013-01-16 01:23:00,
2013-01-15 19:28:00,23.1,15.4,29.95,South,169,2.0,11.0,72,0.00,,---,0.00,VWS V14.01,2013-01-16 01:28:00,
2013-01-15 19:33:00,22.9,15.2,29.95,South,189,1.0,6.0,72,0.00,,---,0.00,VWS V14.01,2013-01-16 01:33:00,
2013-01-15 19:38:00,22.8,15.1,29.95,SSE,158,4.0,7.0,72,0.00,,---,0.00,VWS V14.01,2013-01-16 01:38:00,
2013-01-15 19:43:00,22.7,15.1,29.95,SSE,159,1.0,7.0,72,0.00,,---,0.00,VWS V14.01,2013-01-16 01:43:00,
2013-01-15 19:48:00,22.6,14.9,29.94,SSE,167,3.0,7.0,72,0.00,,---,0.00,VWS V14.01,2013-01-16 01:48:00,
2013-01-15 19:53:00,22.6,15.3,29.94,South,180,4.0,8.0,73,0.00,,---,0.00,VWS V14.01,2013-01-16 01:53:00,
2013-01-15 19:58:00,22.4,15.1,29.94,South,175,0.0,9.0,73,0.00,,---,0.00,VWS V14.01,2013-01-16 01:58:00,
2013-01-15 20:03:00,22.3,15.0,29.93,South,182,3.0,6.0,73,0.00,,---,0.00,VWS V14.01,2013-01-16 02:03:00,
2013-01-15 20:08:00,22.2,14.9,29.94,SSW,192,2.0,6.0,73,0.00,,---,0.00,VWS V14.01,2013-01-16 02:08:00,
2013-01-15 20:13:00,22.1,14.8,29.93,SSE,166,1.0,6.0,73,0.00,,---,0.00,VWS V14.01,2013-01-16 02:13:00,
2013-01-15 20:18:00,22.0,14.7,29.93,SSE,152,1.0,7.0,73,0.00,,---,0.00,VWS V14.01,2013-01-16 02:18:00,
2013-01-15 20:23:00,21.8,14.8,29.93,South,173,2.0,8.0,74,0.00,,---,0.00,VWS V14.01,2013-01-16 02:23:00,
2013-01-15 20:28:00,21.8,14.8,29.92,SSE,167,2.0,8.0,74,0.00,,---,0.00,VWS V14.01,2013-01-16 02:28:00,
2013-01-15 20:33:00,21.7,14.7,29.92,South,187,1.0,7.0,74,0.00,,---,0.00,VWS V14.01,2013-01-16 02:33:00,
2013-01-15 20:38:00,21.5,14.5,29.92,South,175,0.0,9.0,74,0.00,,---,0.00,VWS V14.01,2013-01-16 02:38:00,
2013-01-15 20:43:00,21.3,14.3,29.92,South,178,3.0,9.0,74,0.00,,---,0.00,VWS V14.01,2013-01-16 02:43:00,
2013-01-15 20:48:00,21.2,14.2,29.92,South,175,4.0,9.0,74,0.00,,---,0.00,VWS V14.01,2013-01-16 02:48:00,
2013-01-15 20:53:00,21.2,14.5,29.91,SSE,163,2.0,9.0,75,0.00,,---,0.00,VWS V14.01,2013-01-16 02:53:00,
2013-01-15 20:58:00,21.1,14.4,29.91,South,175,2.0,9.0,75,0.00,,---,0.00,VWS V14.01,2013-01-16 02:58:00,
2013-01-15 21:03:00,21.0,14.3,29.90,South,180,2.0,5.0,75,0.00,,---,0.00,VWS V14.01,2013-01-16 03:03:00,
2013-01-15 21:08:00,20.8,14.1,29.91,South,171,3.0,6.0,75,0.00,,---,0.00,VWS V14.01,2013-01-16 03:08:00,
2013-01-15 21:13:00,20.8,14.1,29.90,South,171,3.0,6.0,75,0.00,,---,0.00,VWS V14.01,2013-01-16 03:13:00,
2013-01-15 21:18:00,20.6,13.9,29.90,South,185,3.0,6.0,75,0.00,,---,0.00,VWS V14.01,2013-01-16 03:18:00,
2013-01-15 21:23:00,20.6,14.2,29.89,SSW,193,7.0,7.0,76,0.00,,---,0.00,VWS V14.01,2013-01-16 03:23:00,
2013-01-15 21:28:00,20.6,14.2,29.89,South,173,0.0,8.0,76,0.00,,---,0.00,VWS V14.01,2013-01-16 03:28:00,
2013-01-15 21:33:00,20.5,14.1,29.89,South,185,4.0,6.0,76,0.00,,---,0.00,VWS V14.01,2013-01-16 03:33:00,
2013-01-15 21:38:00,20.4,14.1,29.88,South,176,1.0,6.0,76,0.00,,---,0.00,VWS V14.01,2013-01-16 03:38:00,
2013-01-15 21:43:00,20.3,14.0,29.88,South,177,0.0,9.0,76,0.00,,---,0.00,VWS V14.01,2013-01-16 03:43:00,
2013-01-15 21:48:00,20.2,13.9,29.88,SSE,159,4.0,9.0,76,0.00,,---,0.00,VWS V14.01,2013-01-16 03:48:00,
2013-01-15 21:53:00,20.1,14.1,29.88,SSE,157,1.0,9.0,77,0.00,,---,0.00,VWS V14.01,2013-01-16 03:53:00,
2013-01-15 21:58:00,20.0,14.0,29.88,South,180,1.0,9.0,77,0.00,,---,0.00,VWS V14.01,2013-01-16 03:58:00,
2013-01-15 22:03:00,19.8,13.8,29.87,South,173,2.0,4.0,77,0.00,,---,0.00,VWS V14.01,2013-01-16 04:03:00,
2013-01-15 22:08:00,19.7,13.7,29.87,SSE,161,3.0,5.0,77,0.00,,---,0.00,VWS V14.01,2013-01-16 04:08:00,
2013-01-15 22:13:00,19.7,14.0,29.87,SSE,161,0.0,5.0,78,0.00,,---,0.00,VWS V14.01,2013-01-16 04:13:00,
2013-01-15 22:18:00,19.5,13.8,29.87,South,184,2.0,6.0,78,0.00,,---,0.00,VWS V14.01,2013-01-16 04:18:00,
2013-01-15 22:23:00,19.5,13.8,29.87,SSE,165,3.0,6.0,78,0.00,,---,0.00,VWS V14.01,2013-01-16 04:23:00,
2013-01-15 22:28:00,19.4,13.7,29.86,SSE,157,0.0,7.0,78,0.00,,---,0.00,VWS V14.01,2013-01-16 04:28:00,
2013-01-15 22:33:00,19.4,13.7,29.86,ESE,118,1.0,4.0,78,0.00,,---,0.00,VWS V14.01,2013-01-16 04:33:00,
2013-01-15 22:38:00,19.3,13.9,29.86,South,169,0.0,5.0,79,0.00,,---,0.00,VWS V14.01,2013-01-16 04:38:00,
2013-01-15 22:43:00,19.1,13.7,29.85,South,188,0.0,5.0,79,0.00,,---,0.00,VWS V14.01,2013-01-16 04:43:00,
2013-01-15 22:48:00,19.0,13.6,29.85,South,173,2.0,5.0,79,0.00,,---,0.00,VWS V14.01,2013-01-16 04:48:00,
2013-01-15 22:53:00,18.8,13.4,29.85,SSE,161,4.0,7.0,79,0.00,,---,0.00,VWS V14.01,2013-01-16 04:53:00,
2013-01-15 22:58:00,18.8,13.7,29.84,South,186,1.0,7.0,80,0.00,,---,0.00,VWS V14.01,2013-01-16 04:58:00,
2013-01-15 23:00:00,18.7,13.6,29.84,SE,124,2.0,7.0,80,0.00,,---,0.00,VWS V14.01,2013-01-16 05:00:00,
2013-01-15 23:01:00,18.8,13.7,29.84,SE,132,5.0,5.0,80,0.00,,---,0.00,VWS V14.01,2013-01-16 05:01:00,
2013-01-15 23:06:00,18.8,13.7,29.83,SSW,192,2.0,5.0,80,0.00,,---,0.00,VWS V14.01,2013-01-16 05:06:00,
2013-01-15 23:11:00,18.8,13.7,29.83,South,184,1.0,5.0,80,0.00,,---,0.00,VWS V14.01,2013-01-16 05:11:00,
2013-01-15 23:16:00,18.8,13.7,29.83,SSE,167,4.0,7.0,80,0.00,,---,0.00,VWS V14.01,2013-01-16 05:16:00,
2013-01-15 23:21:00,18.8,13.9,29.82,SSE,167,4.0,7.0,81,0.00,,---,0.00,VWS V14.01,2013-01-16 05:21:00,
2013-01-15 23:26:00,18.8,13.9,29.81,South,170,0.0,7.0,81,0.00,,---,0.00,VWS V14.01,2013-01-16 05:26:00,
2013-01-15 23:31:00,18.9,13.8,29.81,SSE,168,3.0,5.0,80,0.00,,---,0.00,VWS V14.01,2013-01-16 05:31:00,
2013-01-15 23:36:00,18.9,14.0,29.81,SSE,165,4.0,5.0,81,0.00,,---,0.00,VWS V14.01,2013-01-16 05:36:00,
2013-01-15 23:41:00,18.8,13.9,29.81,South,187,0.0,7.0,81,0.00,,---,0.00,VWS V14.01,2013-01-16 05:41:00,
2013-01-15 23:46:00,18.8,13.7,29.80,South,171,2.0,10.0,80,0.00,,---,0.00,VWS V14.01,2013-01-16 05:46:00,
2013-01-15 23:51:00,18.7,13.6,29.80,South,171,1.0,10.0,80,0.00,,---,0.00,VWS V14.01,2013-01-16 05:51:00,
2013-01-15 23:56:00,18.5,13.6,29.80,South,180,3.0,10.0,81,0.00,,---,0.00,VWS V14.01,2013-01-16 05:56:00,